User: anonymous   Login
Location: Unspecified
(0.0000°N, 0.0000°E)
Time: 07:26:46
(UTC+00:00)
Language:

SOICAL CONE - Orbit

View from above orbital plane
View from above orbital plane
View from above satellite
View from above satellite

Ground track
Ground track

The orbit data is extracted from the following two-line orbital elements,

1  4132U 69082K   18174.91716943 +.00000252 +00000-0 +13339-3 0  9997
2  4132 069.9960 348.9904 0008950 172.7414 187.3837 14.24388197505178
Epoch (UTC): 23 June 2018 22:00:43
Eccentricity: 0.0008950
inclination: 69.9960°
perigee height: 804 km
apogee height: 817 km
right ascension of ascending node: 348.9904°
argument of perigee: 172.7414°
revolutions per day: 14.24388197
mean anomaly at epoch: 187.3837°
orbit number at epoch: 50517

The dashed part of the orbit path shows where the satellite is in the earth's shadow,  

DLR